星链-3962 (STARLINK-3962 )

导读 | 星芒AI

STARLINK-3962 是 SpaceX Starlink 卫星互联网项目中的一颗低轨卫星,属于第三代星链卫星(v1.5 或 v2 版本)。该卫星由 SpaceX 制造并发射,旨在为全球用户提供高速、低延迟的互联网服务。它运行在约 550 公里的轨道高度,配备先进通信设备和激光链路,以提升网络性能和卫星间通信能力。STARLINK-3962 的部署有助于扩大 Starlink 网络的覆盖范围,特别是在偏远和网络基础设施薄弱的地区。

基本信息
目录编号:
52708
目录名称:
STARLINK-3962
国际标识:
2022-053BE
轨道中心:
EARTH
卫星名称:
星链-3962
卫星全名:
星链-3962 (STARLINK-3962 )
卫星状态:
在轨 (已飞行1267 天)
发射日期:
2022-05-18 UTC
国别 :
美国 (US)
星等 :
--
轨道信息
数据来源 国际轨道数据
星历时间: 2025-11-04T20:14:56+0800
11小时前
查看轨道信息
半长轴: 6917.882km
偏心率: 0.0001349
轨道倾角: 53.218°
近地点辐角 94.750°
升交点赤经 336.063°
平近点角 265.365°
近地点: 538.813km
远地点: 540.681km
周期: 95.438分钟
每日圈数: 15.088398
详细信息
固有亮度:
5
最大亮度:
2.5
卫星平台:
Starlink v1.5
覆盖范围:
全球
运营商:
太空探索技术公司
运营商所在国:
美国
制造商(研发单位):
太空探索技术公司
制造商所在国:
美国
使用方式:
暂无
卫星简介
星链(Starlink)计划是由太空探索技术公司(SpaceX)提出的一个巨型低轨卫星互联网星座项目,计划在2019年至2024年间在太空搭建由约1.2万颗卫星组成的“星链”网络,其中1584颗将部署在地球上空550千米处的近地轨道,并从2020年开始工作。该卫星仍在工作。
2D轨道图
3D轨道图
轨道高度分析图
轨道倾角分析图
轨道综合分析图
查看轨道综合分析图